Location: Wanzleben
(52.0609°N, 11.4408°E)
Time: 16:00:44
(UTC+00:00)

Envisat - Pass Details

Date: 03 December 2020
Orbit: 764 x 766 km, 98.1° (Epoch: 20 January)

Event Time Altitude Azimuth Distance (km) Brightness Sun altitude
Rises 17:02:09 0° 194° (SSW) 3,222 6.6 -17.0°
Reaches altitude 10° 17:04:43 10° 205° (SSW) 2,301 6.0 -17.4°
Maximum altitude 17:09:09 30° 266° (W) 1,348 5.0 -18.1°
Drops below altitude 10° 17:13:38 10° 328° (NNW) 2,317 5.7 -18.8°
Sets 17:16:14 0° 339° (NNW) 3,248 6.4 -19.1°
